Weather in Severnyy

Russia / Belgorod Oblast     50°40′38″N   36°33′38″E
temp.,
°C
wind,
m/s
gust,
m/s
humid.,
%
clouds,
%
prec.,
mm/h
press.,
hPa
HPBL,
m
17 june, thu
thu1700:00+16nne47950 0.1 1014128
03:00+16ne41196100 0.1 1015248
06:00+17ne512955 0.0 1015345
09:00+21ene61083100 0.0 1016587
12:00+23ene797198 0.0 10181339
15:00+23ne7107540 0.1 10181298
18:00+22ne610800 1.3 1018668
21:00+19ne614850 1.3 1020456
18 june, fri
fri1800:00+18ene715822 0.0 1021645
03:00+16ene614840 0.0 1021439
06:00+16ene614870 0.0 1022513
09:00+19e711750 0.0 1023728
12:00+22e79650 0.0 10231161
15:00+23e78625 0.0 10231327
18:00+22e59730 0.0 10231129
21:00+17ene411900 0.0 1024220
19 june, sat
sat1900:00+17e513860 0.0 1024353
03:00+14ene411900 0.0 1024240
06:00+15ene512885 0.0 1024318
09:00+19e710745 0.0 1024603
12:00+22e79664 0.0 1024915
15:00+23e78650 0.0 10231059
18:00+23e69750 0.0 1022855
21:00+18e411880 0.0 1023251
20 june, sun
sun2000:00+16e410880 0.0 1023203
03:00+14ene411866 0.0 1022198
06:00+15ene411845 0.0 1022259
09:00+20e6117293 0.0 1022490
12:00+23e796019 0.0 1021832
15:00+24e5867100 0.0 1020890
18:00+22e5975100 0.0 1019413
21:00+19ene41088100 0.0 1019200
21 june, mon
mon2100:00+19ene51379100 0.0 1018321
03:00+19e5147599 0.0 1017313
06:00+18ene6118398 0.0 1017244
09:00+22e61173100 0.0 1017345
12:00+26e7105936 0.0 1017752
15:00+27ese7116216 0.0 10161142
18:00+26ese712680 0.0 1016785
21:00+21e4128810 0.0 1017240